Tracking 19827 objects as of 22-Aug-2019
HD Live streaming from Space Station
objects crossing your sky now

COSMOS 1153

Track COSMOS 1153 now!
10-day predictions
COSMOS 1153 is classified as:


NORAD ID: 11680
Int'l Code: 1980-007A
Perigee: 965.3 km
Apogee: 1,022.1 km
Inclination: 82.9 °
Period: 104.8 minutes
Semi major axis: 7364 km
RCS: 3.444 m2 (large)
Launch date: January 25, 1980
Source: Commonwealth of Independent States (former USSR) (CIS)
Launch site: PLESETSK MISSILE AND SPACE COMPLEX (PKMTR)
aabbcc
Your satellite tracking list
Your tracking list is empty




NASA's NSSDC Master Catalog

Two Line Element Set (TLE):
1 11680U 80007A   19233.93817181 +.00000027 +00000-0 +12399-4 0  9994
2 11680 082.9312 214.5882 0038595 070.2852 344.3436 13.73638822980475
Source of the keplerian elements: AFSPC